Regional Weather Roundup
Issued by NWS

Home | Current Version | Previous Version | Text Only | Print | Product List | Glossary On
Versions: 1 2 3 4 5 6 7 8 9 10 11 12 13 14 15 16 17 18 19 20 21 22 23 24 25 26 27 28 29 30 31 32 33 34 35 36 37 38 39 40 41 42 43 44 45 46 47 48 49 50
024
ASUS45 KABQ 271401
RWRNM
NEW MEXICO REGIONAL WEATHER ROUNDUP
NATIONAL WEATHER SERVICE ALBUQUERQUE NM
800 AM MDT SAT AUG 27 2016

NOTE: "FAIR" MEANS FEW OR NO CLOUDS BELOW 12,000 FEET AGL WITH NO
       SIGNIFICANT WEATHER OR OBSTRUCTIONS TO VISION.

      THIS PRODUCT IS RELEASED AS TWO VERSIONS.  ONE VERSION NEAR
      THE TOP OF THE HOUR CONTAINING PRELIMINARY DATA FROM ALBUQUERQUE
      AND OTHER STATIONS.  A FINAL VERSION WITH ADDITIONAL DATA IS
      ISSUED ABOUT 10 MINUTES AFTER THE HOUR.

NMZ501-503-504-510>518-271500-
NORTHWEST PLATEAU/NORTHCENTRAL MOUNTAINS

CITY           SKY/WX    TMP DP  RH WIND       PRES   REMARKS
FARMINGTON     FAIR      59  45  59 S3        30.19R
LOS ALAMOS     FAIR      57  47  69 CALM      30.31R
SANTA FE       FAIR      57  51  80 N7        30.25R
TAOS           FAIR      50  43  76 N6        30.31R
ANGEL FIRE     FAIR      41  40  95 CALM      30.38S

$$
NMZ402-403-502-505>509-271500-
WESTCENTRAL MOUNTAINS/SOUTHWEST MOUNTAINS

CITY           SKY/WX    TMP DP  RH WIND       PRES   REMARKS
GALLUP         FAIR      56  47  71 CALM      30.26R
GRANTS         FAIR      55  48  76 CALM      30.29R
SILVER CITY    FAIR      61  55  81 N6        30.20S

$$
NMZ407-409-411-412-271500-
SOUTHERN DESERTS

CITY           SKY/WX    TMP DP  RH WIND       PRES   REMARKS
DEMING         FAIR      67  58  72 CALM      30.13S
LAS CRUCES     FAIR      69  58  68 CALM      30.15S
ALAMOGORDO     PTSUNNY   66  59  77 SW3       30.15R
T OR C         FAIR      64  53  67 NW7       30.17R

$$
NMZ519>523-271500-
CENTRAL VALLEYS/CENTRAL HIGHLANDS

CITY           SKY/WX    TMP DP  RH WIND       PRES   REMARKS
ALBUQUERQUE    FAIR      64  51  62 CALM      30.21R
DOUBLE EAGLE   MOSUNNY   61  50  67 CALM      30.24R
MORIARTY ARPT  PTSUNNY   56  51  86 N3        30.27R
CLINES CORNERS FAIR      60  47  61 SW14      30.29R
BELEN          FAIR      66  51  58 S6        30.19S
SOCORRO        FAIR      67  52  59 S5        30.19R

$$
NMZ524>526-539-540-271500-
SOUTHCENTRAL MOUNTAINS

CITY           SKY/WX    TMP DP  RH WIND       PRES   REMARKS
RUIDOSO          N/A     55  50  82 CALM      30.31R

$$
NMZ527>531-271500-
NORTHEAST HIGHLANDS/NORTHEAST PLAINS

CITY           SKY/WX    TMP DP  RH WIND       PRES   REMARKS
LAS VEGAS      FAIR      55  48  77 N3        30.27R
RATON          FAIR      51  47  86 NE6       30.23R
CLAYTON        FAIR      61  56  83 W13       30.14S

$$
NMZ532>537-271500-
EASTCENTRAL PLAINS

CITY           SKY/WX    TMP DP  RH WIND       PRES   REMARKS
TUCUMCARI      FAIR      68  64  87 VRB3      30.11S
CANNON AFB     FAIR      67  64  93 SW9       30.15R
CLOVIS AIRPORT FAIR      66  61  82 SW10      30.15R

$$
NMZ028-029-538-271500-
SOUTHEAST PLAINS

CITY           SKY/WX    TMP DP  RH WIND       PRES   REMARKS
ROSWELL        FAIR      68  63  84 SE7       30.12R
ARTESIA        FAIR      68  68 100 S6        30.13R
CARLSBAD       FAIR      68  64  87 SE3       30.10R
HOBBS          SUNNY     66  66 100 E6        30.14R


$$




USA.gov is the U.S. government's official web portal to all federal, state and local government web resources and services.